Other Public Products
Issued by NWS Charleston, SC

Current Version | Previous Version | Text Only | Print | Product List | Glossary Off
Versions: 1 2 3 4 5 6 7 8 9 10 11 12 13 14 15 16 17 18 19 20 21 22 23 24 25 26 27 28 29 30 31 32 33 34 35 36 37 38 39 40 41 42 43 44 45 46 47 48 49 50
000 FPUS82 KCHS 212228 OPUCHS TEST...KCHS/KSAV Gateway Observations...TEST National Weather Service Charleston SC 600 PM EDT FRI JUL 21 2017 NOTE: "fair" indicates few or no clouds below 12,000 feet with no significant weather and/or obstructions to visibility. SCZ050-WAZ558-NCZ071-TXZ119-213-PAZ071-DCZ001-FLZ074-172-MI076- NYZ176-178-MAZ016-IL014-TNZ027-NJZ106-GAZ044-MD014-212300- ...Gateway Observations for Charleston International... CITY SKY/WX TMP DP RH WIND PRES REMARKS Chas Airport MOSUNNY 88 72 58 SW12 30.00R HX 94 Seattle PTSUNNY 76 52 43 W9 30.14F Charlotte MOSUNNY 94 69 44 W3 29.97F HX 99 Dallas DFW MOSUNNY 99 68 36 S13 29.91F HX 104 Dallas Love MOSUNNY 98 66 34 S13 29.91F HX 101 Philladelphia PTSUNNY 92 68 45 W10 29.87F HX 96 Wash National PTSUNNY 94 70 45 VRB6 29.88F HX 100 Baltimore PTSUNNY 90 72 55 S5 29.88F HX 97 Miami CLOUDY 80 74 81 CALM 30.07R Detroit CLOUDY 86 67 52 W7 29.96S Newark PTSUNNY 91 66 43 W13 29.85F HX 93 Laguardia PTSUNNY 92 66 42 W12 29.84F HX 94 J F K PTSUNNY 93 66 40 W14 29.86S HX 96 Boston Logan PTSUNNY 90 61 37 W14 29.76F HX 90 Ft. Lauderdale CLOUDY 80 74 81 E7 30.06R Chicago O`Hare TSTM 74 70 87 SE7G17 29.92F FOG Chicago Midway CLOUDY 88 70 55 S8 29.91F THUNDER HX 93 Houston Bush PTSUNNY 90 72 55 SE13 29.94F THUNDER HX 97 Houston Hobby CLOUDY 93 75 55 SE13 29.95F HX 104 Nashville PTSUNNY 95 68 41 VRB3 29.98F HX 99 Atlanta MOSUNNY 91 70 49 SW3 30.00S HX 96 $$ GAZ044-118-TXZ119-213-NCZ071-DCZ001-MDZ014-506-PAZ021-071-NJZ106- NYZ176-178-MAZ106-OHZ011-021-055-MIZ076-KYZ091-ILZ014-INZ047- MNZ060-ONZ431-212300- ...Gateway Observations for Savannah International... CITY SKY/WX TMP DP RH WIND PRES REMARKS Savannah Arpt MOSUNNY 92 73 53 S13 29.99S HX 100 Atlanta MOSUNNY 91 70 49 SW3 30.00S HX 96 Charlotte MOSUNNY 94 69 44 W3 29.97F HX 99 Dallas DFW MOSUNNY 99 68 36 S13 29.91F HX 104 Houston Bush PTSUNNY 90 72 55 SE13 29.94F THUNDER HX 97 Wash National PTSUNNY 94 70 45 VRB6 29.88F HX 100 Wash Dulles CLOUDY 89 71 55 S3 29.87F HX 95 Baltimore PTSUNNY 90 72 55 S5 29.88F HX 97 Philadelphia PTSUNNY 92 68 45 W10 29.87F HX 96 Newark PTSUNNY 91 66 43 W13 29.85F HX 93 Laguardia PTSUNNY 92 66 42 W12 29.84F HX 94 J F K PTSUNNY 93 66 40 W14 29.86S HX 96 Boston PTSUNNY 90 61 37 W14 29.76F HX 90 Pittsburg CLOUDY 87 69 54 W8 29.96R HX 91 Akron PTSUNNY 90 66 45 W8 29.95F HX 92 Cleveland PTSUNNY 85 71 63 N9 29.97S HX 90 Cincinnati MOSUNNY 90 79 70 CALM 29.97F HX 106 Columbus CLOUDY 82 73 73 SW5 29.97F Detroit CLOUDY 86 67 52 W7 29.96S Chicago O`Hare TSTM 74 70 87 SE7G17 29.92F FOG Minneapolis PTSUNNY 82 67 60 S10 29.85R Indianapolis PTSUNNY 88 74 63 E6 29.95F HX 96 Toronto Canada PTSUNNY 84 54 34 NW13 29.91R $$

USA.gov is the U.S. government's official web portal to all federal, state and local government web resources and services.